This is the latest recevied weather packets stored in our database for station/object K9APR. If no packets are shown the sender has not sent any weather packets the latest 1 day(s).
| Time | Temp. | Humidity | Pressure | Rain* | Wind** | Luminosity | Snow |
|---|---|---|---|---|---|---|---|
| 1778004862 | 16.11° C | 83% | 1008 hPa | 0.25 mm | 0.45 m/s, 237° | - | - |
| 1778004321 | 16.11° C | 82% | 1007.9 hPa | 0.25 mm | 0.89 m/s, 257° | - | - |
| 1778003782 | 16.67° C | 80% | 1007.9 hPa | 0.25 mm | 0.89 m/s, 246° | - | - |
| 1778003244 | 16.67° C | 78% | 1008 hPa | 0 mm | 1.34 m/s, 207° | - | - |
| 1778002701 | 17.22° C | 77% | 1008.1 hPa | 0 mm | 2.24 m/s, 209° | - | - |
| 1778002161 | 17.22° C | 76% | 1008 hPa | 0 mm | 2.24 m/s, 240° | - | - |
| 1778001621 | 17.22° C | 75% | 1007.9 hPa | 0 mm | 2.68 m/s, 191° | - | - |
| 1778001083 | 17.78° C | 76% | 1008.1 hPa | 0 mm | 2.24 m/s, 210° | - | - |
| 1778000541 | 17.78° C | 75% | 1008.1 hPa | 0 mm | 3.13 m/s, 198° | - | - |
| 1778000001 | 17.78° C | 76% | 1008 hPa | 0 mm | 3.13 m/s, 199° | - | - |
| 1777999461 | 17.78° C | 76% | 1007.9 hPa | 0 mm | 1.34 m/s, 219° | - | - |
| 1777998923 | 17.78° C | 75% | 1008.1 hPa | 0 mm | 2.24 m/s, 258° | - | - |
| 1777998381 | 17.78° C | 76% | 1008.1 hPa | 0 mm | 1.34 m/s, 246° | - | - |
| 1777997301 | 17.78° C | 76% | 1008.4 hPa | 0 mm | 1.34 m/s, 264° | - | - |
| 1777996761 | 17.78° C | 76% | 1008.4 hPa | 0 mm | 1.34 m/s, 261° | - | - |
| 1777996222 | 17.78° C | 77% | 1008.5 hPa | 0 mm | 0.89 m/s, 280° | - | - |
| 1777995682 | 17.78° C | 76% | 1008.5 hPa | 0 mm | 2.68 m/s, 253° | - | - |
| 1777995142 | 17.78° C | 77% | 1008.5 hPa | 0 mm | 2.24 m/s, 246° | - | - |
| 1777994601 | 17.78° C | 76% | 1008.3 hPa | 0 mm | 2.24 m/s, 261° | - | - |
| 1777994061 | 17.78° C | 77% | 1008.1 hPa | 0 mm | 3.13 m/s, 243° | - | - |
| 1777993523 | 17.78° C | 77% | 1008.3 hPa | 0 mm | 3.58 m/s, 237° | - | - |
| 1777992982 | 17.78° C | 77% | 1008.2 hPa | 0 mm | 2.68 m/s, 256° | - | - |
| 1777992442 | 17.22° C | 78% | 1008.1 hPa | 0 mm | 2.24 m/s, 232° | - | - |
| 1777991901 | 17.22° C | 79% | 1007.9 hPa | 0 mm | 1.34 m/s, 246° | - | - |
| 1777991361 | 17.22° C | 79% | 1008.1 hPa | 0 mm | 3.13 m/s, 226° | - | - |
* Rain latest hour (hover to see other rain measurements)
** Current wind speed in m/s (hover to see current wind gust speed)